Regional Weather Roundup
Issued by NWS

Home | Current Version | Previous Version | Graphics & Text | Print | Product List | Glossary On
Versions: 1 2 3 4 5 6 7 8 9 10 11 12 13 14 15 16 17 18 19 20 21 22 23 24 25 26 27 28 29 30 31 32 33 34 35 36 37 38 39 40 41 42 43 44 45 46 47 48 49 50
000
ASUS43 KFSD 220402
RWRSD

WEATHER ROUNDUP FOR SOUTH DAKOTA
NATIONAL WEATHER SERVICE SIOUX FALLS SD
1100 PM CDT WED JUN 21 2017

NOTE: "FAIR" INDICATES FEW OR NO CLOUDS BELOW 12,000 FEET WITH NO
SIGNIFICANT WEATHER AND/OR OBSTRUCTIONS TO VISIBILITY.


SDZ001>005-009-010-012>017-220500-
NORTHWEST AND NORTH CENTRAL SOUTH DAKOTA

CITY           SKY/WX    TMP DP  RH WIND       PRES   REMARKS
BUFFALO          N/A     66  49  54 E14       29.74R
FAITH            N/A     70  51  51 NE16      29.77R
MOBRIDGE       CLOUDY    73  46  38 NE12      29.72R
$$

SDZ012>016-024>037-041>051-057-063-072>074-220500-
SOUTHWEST AND SOUTH CENTRAL SOUTH DAKOTA

CITY           SKY/WX    TMP DP  RH WIND       PRES   REMARKS
RAPID CTY ARPT CLEAR     72  48  42 NE13      29.78R
PIERRE         CLEAR     74  54  49 NE16      29.70R
CUSTER         CLOUDY    68  45  43 NE13G23   29.94R
ELLSWORTH AFB  CLEAR     76  47  36 NE9       29.79R
PHILIP         CLEAR     75  51  43 NE16      29.73R
PINE RIDGE     CLEAR     68  62  81 E6        29.75R
SPEARFISH      FAIR      64  52  63 SE7       29.85R
WINNER         FAIR      75  65  70 E7        29.68S
$$

SDZ004>011-016>023-039-040-220500-
NORTHEAST SOUTH DAKOTA

CITY           SKY/WX    TMP DP  RH WIND       PRES   REMARKS
ABERDEEN       PTCLDY    72  56  57 N9        29.74R
WATERTOWN      PTCLDY    72  63  73 CALM      29.70F
BROOKINGS      CLEAR     74  67  78 SE5       29.70F
SISSETON         N/A     74  62  66 NW15      29.70R
$$

SDZ017-020-022-023-036>040-048>070-220500-
SOUTHEAST SOUTH DAKOTA

CITY           SKY/WX    TMP DP  RH WIND       PRES   REMARKS
SIOUX FALLS    PTCLDY    75  71  87 NE5       29.67R
HURON          CLOUDY    74  69  85 N9        29.66S
CHAMBERLAIN    PTCLDY    76  69  77 E5        29.67F
MITCHELL       CLEAR     75  68  78 CALM      29.67R
YANKTON        CLEAR     80  71  74 E6        29.64R
$$

ABBREVIATIONS USED IN REMARKS
   TC - TEMPERATURE IN CELSIUS
  WCI - WIND CHILL INDEX
   HX - HEAT INDEX
  VSB - VISIBILITY





USA.gov is the U.S. government's official web portal to all federal, state and local government web resources and services.